Location: Il Ritiro
(43.4167°N, 13.1333°E)
Time: 17:01:28
(UTC+00:00)

Cosmos 1151 Rocket - Pass Details

Date: 05 July 2020
Orbit: 591 x 617 km, 82.5° (Epoch: 11 August)

Event Time Altitude Azimuth Distance (km) Brightness Sun altitude
Rises 21:56:30 0° 2° (N) 2,877 7.7 -21.7°
Reaches altitude 10° 21:59:00 10° 14° (NNE) 1,963 6.4 -21.8°
Maximum altitude 22:02:45 28° 74° (ENE) 1,146 4.4 -22.0°
Enters shadow 22:03:14 27° 86° (E) 1,163 4.3 -22.0°
